,,,PA_Meas_PMT16A,,PR_Meas_QMR101_102,,RH_Meas_QMH101,,SR_Meas_QMS101,,TA_Meas_QMH101,,GenWind,,GenWind,
date,time,status,PA,status,PR,status,RH,status,SR,status,TA,status,DirAvg,status,SpdAvg,
2012-06-30, 07:27:04,VALID,1003.69,VALID,0,VALID,83.0632,VALID,268.164,VALID,26.7783,VALID,278,VALID,0.471875,
2012-06-30, 07:28:04,VALID,1003.69,VALID,0,VALID,83.9329,VALID,272.403,VALID,26.8993,VALID,278,VALID,0.0539063,
2012-06-30, 07:29:04,VALID,1003.7,VALID,0,VALID,82.3843,VALID,273.544,VALID,27.0552,VALID,279,VALID,0.814844,
2012-06-30, 07:30:04,VALID,1003.7,VALID,0,VALID,81.6595,VALID,274.441,VALID,27.2111,VALID,346,VALID,0.760547,
2012-06-30, 07:31:04,VALID,1003.74,VALID,0,VALID,80.8051,VALID,278.353,VALID,27.4644,VALID,283,VALID,0.0425781,
2012-06-30, 07:32:04,VALID,1003.71,VALID,0,VALID,81.2399,VALID,279.25,VALID,27.6983,VALID,282,VALID,0.0757812,
2012-06-30, 07:33:04,VALID,1003.71,VALID,0,VALID,79.0276,VALID,278.516,VALID,27.9516,VALID,283,VALID,1.04688,
2012-06-30, 07:34:04,VALID,1003.73,VALID,0,VALID,77.7001,VALID,283.651,VALID,28.0296,VALID,295,VALID,0.592188,
2012-06-30, 07:35:04,VALID,1003.73,VALID,0,VALID,78.8979,VALID,296.448,VALID,28.1271,VALID,292,VALID,0.0796875,
2012-06-30, 07:36:04,VALID,1003.73,VALID,0,VALID,79.3098,VALID,318.211,VALID,28.3025,VALID,310,VALID,0.478125,
2012-06-30, 07:37:04,VALID,1003.73,VALID,0,VALID,75.9226,VALID,329.541,VALID,28.4194,VALID,322,VALID,1.80234,
2012-06-30, 07:38:04,VALID,1003.73,VALID,0,VALID,75.2589,VALID,343.071,VALID,28.4,VALID,298,VALID,1.06406,
2012-06-30, 07:39:04,VALID,1003.73,VALID,0,VALID,76.7313,VALID,141.581,VALID,28.4801,VALID,271,VALID,1.43828,
2012-06-30, 07:40:04,VALID,1003.74,VALID,0,VALID,77.1127,VALID,354.238,VALID,28.4953,VALID,280,VALID,0.606641,
2012-06-30, 07:41:04,VALID,1003.75,VALID,0,VALID,76.2507,VALID,356.683,VALID,28.6534,VALID,281,VALID,0.55625,
2012-06-30, 07:42:04,VALID,1003.72,VALID,0,VALID,73.6263,VALID,341.767,VALID,28.7898,VALID,302,VALID,1.87734,
2012-06-30, 07:45:04,VALID,1003.77,VALID,0,VALID,74.6486,VALID,344.049,VALID,28.5581,VALID,268,VALID,0.608594,
2012-06-30, 07:46:04,VALID,1003.73,VALID,0,VALID,73.8247,VALID,351.548,VALID,28.4974,VALID,229,VALID,1.35859,
2012-06-30, 07:47:04,VALID,1003.73,VALID,0,VALID,75.3886,VALID,365.404,VALID,28.4758,VALID,236,VALID,0.472656,
2012-06-30, 07:48:04,VALID,1003.72,VALID,0,VALID,76.9449,VALID,377.549,VALID,28.5559,VALID,239,VALID,1.03594,
2012-06-30, 07:49:04,VALID,1003.69,VALID,0,VALID,73.489,VALID,380.158,VALID,28.5754,VALID,239,VALID,1.50391,
2012-06-30, 07:50:04,VALID,1003.69,VALID,0,VALID,75.1521,VALID,309.815,VALID,28.6707,VALID,245,VALID,0.560156,
2012-06-30, 07:52:04,VALID,1003.69,VALID,0,VALID,74.1451,VALID,371.925,VALID,28.8093,VALID,241,VALID,0.755859,
2012-06-30, 07:53:04,VALID,1003.7,VALID,0,VALID,74.9309,VALID,371.599,VALID,28.7119,VALID,242,VALID,1.05313,
2012-06-30, 07:54:04,VALID,1003.68,VALID,0,VALID,73.901,VALID,363.041,VALID,28.714,VALID,226,VALID,0.9375,
2012-06-30, 07:55:04,VALID,1003.68,VALID,0,VALID,74.3282,VALID,367.524,VALID,28.6729,VALID,226,VALID,0.711719,
2012-06-30, 07:56:04,VALID,1003.65,VALID,0,VALID,74.6638,VALID,101.153,VALID,28.6729,VALID,189,VALID,0.447656,
2012-06-30, 07:57:04,VALID,1003.69,VALID,0,VALID,74.6257,VALID,388.227,VALID,28.6534,VALID,234,VALID,0.989453,
2012-06-30, 07:58:04,VALID,1003.66,VALID,0,VALID,75.7014,VALID,404.366,VALID,28.6166,VALID,215,VALID,0.776563,
2012-06-30, 07:59:04,VALID,1003.67,VALID,0,VALID,74.4274,VALID,390.509,VALID,28.6144,VALID,225,VALID,1.84648,
2012-06-30, 08:00:04,VALID,1003.63,VALID,0,VALID,74.7401,VALID,165.708,VALID,28.6144,VALID,232,VALID,1.13477,
2012-06-30, 08:01:04,VALID,1003.65,VALID,0,VALID,73.8323,VALID,193.91,VALID,28.6729,VALID,261,VALID,1.09961,
2012-06-30, 08:02:04,VALID,1003.67,VALID,0,VALID,73.7026,VALID,115.172,VALID,28.6729,VALID,219,VALID,1.47617,
2012-06-30, 08:03:04,VALID,1003.7,VALID,0,VALID,74.1222,VALID,114.194,VALID,28.5559,VALID,270,VALID,0.810156,
2012-06-30, 08:05:04,VALID,1003.7,VALID,0,VALID,76.037,VALID,117.617,VALID,28.3826,VALID,205,VALID,0.69375,
2012-06-30, 08:06:04,VALID,1003.71,VALID,0,VALID,76.1667,VALID,487.586,VALID,28.322,VALID,238,VALID,0.866016,
2012-06-30, 08:07:04,VALID,1003.7,VALID,0,VALID,75.8616,VALID,155.927,VALID,28.3805,VALID,244,VALID,0.806641,
2012-06-30, 08:08:04,VALID,1003.7,VALID,0,VALID,75.2513,VALID,118.758,VALID,28.4216,VALID,260,VALID,2.14219,
2012-06-30, 08:09:04,VALID,1003.69,VALID,0,VALID,76.449,VALID,173.369,VALID,28.3415,VALID,273,VALID,1.21914,
2012-06-30, 08:10:04,VALID,1003.66,VALID,0,VALID,75.1521,VALID,491.01,VALID,28.3046,VALID,238,VALID,1.51484,
2012-06-30, 08:11:04,VALID,1003.69,VALID,0,VALID,74.8927,VALID,487.912,VALID,28.2851,VALID,244,VALID,1.52383,
2012-06-30, 08:12:04,VALID,1003.72,VALID,0,VALID,74.5799,VALID,166.441,VALID,28.3805,VALID,240,VALID,1.58711,
2012-06-30, 08:13:04,VALID,1003.74,VALID,0,VALID,75.5183,VALID,204.343,VALID,28.4606,VALID,281,VALID,0.8625,
2012-06-30, 08:14:04,VALID,1003.72,VALID,0,VALID,74.8088,VALID,529.971,VALID,28.5559,VALID,239,VALID,1.02109,
2012-06-30, 08:15:04,VALID,1003.73,VALID,0,VALID,73.489,VALID,554.505,VALID,28.6945,VALID,282,VALID,1.55742,
2012-06-30, 08:16:04,VALID,1003.77,VALID,0,VALID,73.2449,VALID,533.802,VALID,28.7898,VALID,224,VALID,1.13242,
2012-06-30, 08:17:04,VALID,1003.75,VALID,0,VALID,74.0917,VALID,150.791,VALID,28.8483,VALID,236,VALID,2.02734,
2012-06-30, 08:18:04,VALID,1003.76,VALID,0,VALID,72.8177,VALID,118.106,VALID,28.909,VALID,226,VALID,2.00469,
2012-06-30, 08:19:04,VALID,1003.75,VALID,0,VALID,73.4432,VALID,524.754,VALID,28.8505,VALID,227,VALID,1.15547,
2012-06-30, 08:20:04,VALID,1003.72,VALID,0,VALID,72.1005,VALID,497.856,VALID,28.8873,VALID,294,VALID,1.53516,
2012-06-30, 08:21:04,VALID,1003.75,VALID,0,VALID,72.5659,VALID,552.304,VALID,29.0433,VALID,266,VALID,1.27031,
2012-06-30, 08:22:04,VALID,1003.74,VALID,0,VALID,72.7337,VALID,321.227,VALID,29.1213,VALID,235,VALID,0.653516,
2012-06-30, 08:23:04,VALID,1003.71,VALID,0,VALID,72.7795,VALID,538.366,VALID,29.1581,VALID,240,VALID,1.42109,
2012-06-30, 08:24:04,VALID,1003.74,VALID,0,VALID,72.3218,VALID,268.001,VALID,29.2578,VALID,292,VALID,1.63555,
2012-06-30, 08:25:04,VALID,1003.74,VALID,0,VALID,71.4445,VALID,122.589,VALID,29.2773,VALID,281,VALID,1.66875,
2012-06-30, 08:26:04,VALID,1003.71,VALID,0,VALID,70.9944,VALID,508.453,VALID,29.3163,VALID,277,VALID,1.2793,
2012-06-30, 08:27:04,VALID,1003.72,VALID,0,VALID,71.8641,VALID,502.095,VALID,29.2968,VALID,285,VALID,1.36914,
2012-06-30, 08:28:04,VALID,1003.68,VALID,0,VALID,72.1921,VALID,526.711,VALID,29.3943,VALID,231,VALID,0.982031,
2012-06-30, 08:29:04,VALID,1003.67,VALID,0,VALID,71.7649,VALID,474.219,VALID,29.3943,VALID,268,VALID,1.47773,
2012-06-30, 08:30:04,VALID,1003.69,VALID,0,VALID,71.536,VALID,159.268,VALID,29.4723,VALID,234,VALID,1.20625,
2012-06-30, 08:31:04,VALID,1003.67,VALID,0,VALID,71.9175,VALID,355.053,VALID,29.3943,VALID,265,VALID,1.10156,
2012-06-30, 08:32:04,VALID,1003.67,VALID,0,VALID,72.7643,VALID,542.442,VALID,29.3358,VALID,249,VALID,0.810156,
2012-06-30, 08:35:04,VALID,1003.68,VALID,0,VALID,75.2208,VALID,533.313,VALID,29.0238,VALID,253,VALID,0.455078,
2012-06-30, 08:36:04,VALID,1003.66,VALID,0,VALID,74.1985,VALID,552.712,VALID,29.0433,VALID,233,VALID,0.401172,
2012-06-30, 08:37:04,VALID,1003.64,VALID,0,VALID,73.7408,VALID,561.922,VALID,29.221,VALID,269,VALID,1.00742,
2012-06-30, 08:38:04,VALID,1003.68,VALID,0,VALID,72.749,VALID,167.012,VALID,29.3748,VALID,216,VALID,1.06406,
2012-06-30, 08:39:04,VALID,1003.67,VALID,0,VALID,72.3828,VALID,599.091,VALID,29.4138,VALID,255,VALID,1.08477,
2012-06-30, 08:40:04,VALID,1003.68,VALID,0,VALID,72.8787,VALID,357.009,VALID,29.4528,VALID,261,VALID,1.07461,
2012-06-30, 08:41:04,VALID,1003.68,VALID,0,VALID,72.0319,VALID,194.317,VALID,29.5503,VALID,254,VALID,1.08711,
2012-06-30, 08:42:04,VALID,1003.69,VALID,0,VALID,70.8723,VALID,116.802,VALID,29.6478,VALID,254,VALID,0.939453,
2012-06-30, 08:43:04,VALID,1003.69,VALID,0,VALID,70.7273,VALID,361.574,VALID,29.689,VALID,245,VALID,1.14648,
2012-06-30, 08:44:04,VALID,1003.72,VALID,0,VALID,71.4063,VALID,353.423,VALID,29.6478,VALID,278,VALID,0.843359,
2012-06-30, 08:45:04,VALID,1003.67,VALID,0,VALID,70.4603,VALID,286.015,VALID,29.689,VALID,289,VALID,0.687109,
2012-06-30, 08:46:04,VALID,1003.66,VALID,0,VALID,71.6352,VALID,558.01,VALID,29.5893,VALID,278,VALID,1.19961,
2012-06-30, 08:47:04,VALID,1003.67,VALID,0,VALID,71.2614,VALID,580.425,VALID,29.65,VALID,264,VALID,0.628516,
2012-06-30, 08:48:04,VALID,1003.68,VALID,0,VALID,71.8183,VALID,569.992,VALID,29.6695,VALID,232,VALID,1.15508,
2012-06-30, 08:49:04,VALID,1003.7,VALID,0,VALID,70.6892,VALID,574.23,VALID,29.6478,VALID,298,VALID,1.5207,
2012-06-30, 08:50:04,VALID,1003.68,VALID,0,VALID,72.1921,VALID,579.121,VALID,29.7648,VALID,300,VALID,0.769141,
2012-06-30, 08:51:04,VALID,1003.73,VALID,0,VALID,71.5742,VALID,588.494,VALID,29.86,VALID,269,VALID,1.04492,
2012-06-30, 08:52:04,VALID,1003.73,VALID,0,VALID,69.5601,VALID,625.825,VALID,29.9403,VALID,227,VALID,2.11289,
2012-06-30, 08:53:04,VALID,1003.76,VALID,0,VALID,71.5208,VALID,141.744,VALID,29.7258,VALID,232,VALID,2.38594,
2012-06-30, 08:54:04,VALID,1003.76,VALID,0,VALID,73.1762,VALID,636.992,VALID,29.6283,VALID,285,VALID,0.723828,
2012-06-30, 08:55:04,VALID,1003.77,VALID,0,VALID,69.4076,VALID,449.114,VALID,29.7648,VALID,245,VALID,1.15859,
2012-06-30, 08:56:04,VALID,1003.8,VALID,0,VALID,71.1546,VALID,653.865,VALID,29.86,VALID,285,VALID,1.40703,
2012-06-30, 08:57:04,VALID,1003.8,VALID,0,VALID,69.6898,VALID,722.495,VALID,29.7063,VALID,238,VALID,2.57305,
2012-06-30, 08:58:04,VALID,1003.77,VALID,0,VALID,71.9785,VALID,673.101,VALID,29.6088,VALID,270,VALID,1.59336,
2012-06-30, 08:59:04,VALID,1003.8,VALID,0,VALID,71.0706,VALID,233.849,VALID,29.626,VALID,294,VALID,1.27344,
2012-06-30, 09:00:04,VALID,1003.82,VALID,0,VALID,73.9239,VALID,107.999,VALID,29.7625,VALID,26,VALID,0.436328,
2012-06-30, 09:02:04,VALID,1003.85,VALID,0,VALID,70.1552,VALID,224.639,VALID,29.4918,VALID,244,VALID,1.17227,
2012-06-30, 09:03:04,VALID,1003.91,VALID,0,VALID,71.475,VALID,105.717,VALID,29.2968,VALID,278,VALID,0.807813,
2012-06-30, 09:04:04,VALID,1003.83,VALID,0,VALID,69.5296,VALID,628.597,VALID,29.2773,VALID,258,VALID,1.92188,
2012-06-30, 09:05:04,VALID,1003.86,VALID,0,VALID,71.6123,VALID,625.499,VALID,29.3553,VALID,231,VALID,0.829687,
2012-06-30, 09:06:04,VALID,1003.85,VALID,0,VALID,69.7051,VALID,500.791,VALID,29.4138,VALID,239,VALID,2.02422,
2012-06-30, 09:07:04,VALID,1003.9,VALID,0,VALID,71.9632,VALID,613.925,VALID,29.4745,VALID,271,VALID,1.24414,
2012-06-30, 09:08:04,VALID,1003.86,VALID,0,VALID,69.7585,VALID,647.588,VALID,29.6088,VALID,230,VALID,1.69023,
2012-06-30, 09:09:04,VALID,1003.87,VALID,0,VALID,71.0173,VALID,677.176,VALID,29.6088,VALID,256,VALID,0.807031,
2012-06-30, 09:10:04,VALID,1003.92,VALID,0,VALID,70.1018,VALID,135.957,VALID,29.7063,VALID,254,VALID,1.57578,
2012-06-30, 09:11:04,VALID,1003.88,VALID,0,VALID,68.7133,VALID,218.525,VALID,29.7453,VALID,294,VALID,1.13984,
2012-06-30, 09:12:04,VALID,1003.9,VALID,0,VALID,69.583,VALID,686.794,VALID,29.6868,VALID,242,VALID,1.28633,
2012-06-30, 09:13:04,VALID,1003.87,VALID,0,VALID,69.3541,VALID,722.169,VALID,29.6695,VALID,221,VALID,3.3457,
2012-06-30, 09:14:04,VALID,1003.89,VALID,0,VALID,69.9721,VALID,764.798,VALID,29.5893,VALID,227,VALID,0.886719,
2012-06-30, 09:15:04,VALID,1003.87,VALID,0,VALID,70.4527,VALID,751.105,VALID,29.6673,VALID,237,VALID,2.28398,
2012-06-30, 09:16:04,VALID,1003.89,VALID,0,VALID,70.3307,VALID,732.928,VALID,29.7453,VALID,258,VALID,1.16953,
2012-06-30, 09:17:04,VALID,1003.85,VALID,0,VALID,69.728,VALID,178.586,VALID,29.8233,VALID,240,VALID,1.36445,
2012-06-30, 09:18:04,VALID,1003.84,VALID,0,VALID,70.7884,VALID,742.22,VALID,29.767,VALID,220,VALID,1.69648,
2012-06-30, 09:19:04,VALID,1003.9,VALID,0,VALID,70.5443,VALID,708.475,VALID,29.7258,VALID,230,VALID,0.988672,
2012-06-30, 09:20:04,VALID,1003.89,VALID,0,VALID,70.8113,VALID,656.473,VALID,29.806,VALID,282,VALID,1.54336,
2012-06-30, 09:21:04,VALID,1003.93,VALID,0,VALID,69.461,VALID,688.587,VALID,29.8818,VALID,238,VALID,1.64922,
2012-06-30, 09:22:04,VALID,1003.91,VALID,0,VALID,69.7356,VALID,388.961,VALID,29.9598,VALID,231,VALID,2.10703,
2012-06-30, 09:23:04,VALID,1003.9,VALID,0,VALID,68.4234,VALID,724.533,VALID,29.8038,VALID,230,VALID,1.30469,
2012-06-30, 09:24:04,VALID,1003.92,VALID,0,VALID,68.8049,VALID,743.198,VALID,29.8233,VALID,261,VALID,2.17852,
2012-06-30, 09:25:04,VALID,1003.88,VALID,0,VALID,69.789,VALID,159.35,VALID,29.8428,VALID,230,VALID,2.01172,
2012-06-30, 09:26:04,VALID,1003.9,VALID,0,VALID,69.8424,VALID,132.941,VALID,29.806,VALID,245,VALID,1.93906,
2012-06-30, 09:27:04,VALID,1003.94,VALID,0,VALID,71.9327,VALID,739.693,VALID,29.6673,VALID,220,VALID,1.67305,
2012-06-30, 09:28:04,VALID,1003.91,VALID,0,VALID,72.4744,VALID,764.961,VALID,29.6283,VALID,241,VALID,1.26016,
2012-06-30, 09:29:04,VALID,1003.94,VALID,0,VALID,69.8653,VALID,782.812,VALID,29.6283,VALID,226,VALID,2.25391,
2012-06-30, 09:30:04,VALID,1003.91,VALID,0,VALID,68.8583,VALID,229.692,VALID,29.6283,VALID,225,VALID,2.21094,
2012-06-30, 09:31:04,VALID,1003.91,VALID,0,VALID,69.1177,VALID,152.177,VALID,29.5113,VALID,241,VALID,1.29609,
2012-06-30, 09:32:04,VALID,1003.9,VALID,0,VALID,70.1704,VALID,702.036,VALID,29.3943,VALID,232,VALID,1.84023,
2012-06-30, 09:33:04,VALID,1003.91,VALID,0,VALID,70.7045,VALID,660.793,VALID,29.3575,VALID,251,VALID,1.53906,
2012-06-30, 09:34:04,VALID,1003.86,VALID,0,VALID,71.5284,VALID,682.882,VALID,29.5135,VALID,262,VALID,0.516016,
2012-06-30, 09:35:04,VALID,1003.87,VALID,0,VALID,69.3313,VALID,706.275,VALID,29.6673,VALID,254,VALID,1.84492,
2012-06-30, 09:36:04,VALID,1003.87,VALID,0,VALID,70.1857,VALID,748.822,VALID,29.9036,VALID,203,VALID,0.926172,
2012-06-30, 09:37:04,VALID,1003.85,VALID,0,VALID,67.8818,VALID,667.966,VALID,30.1353,VALID,217,VALID,0.992969,
2012-06-30, 09:38:04,VALID,1003.88,VALID,0,VALID,64.3725,VALID,494.27,VALID,30.1743,VALID,201,VALID,2.39102,
2012-06-30, 09:39:04,VALID,1003.92,VALID,0,VALID,66.89,VALID,704.889,VALID,30.0401,VALID,272,VALID,1.53984,
2012-06-30, 09:40:04,VALID,1003.93,VALID,0,VALID,67.0197,VALID,705.949,VALID,29.9403,VALID,218,VALID,2.37617,
2012-06-30, 09:41:04,VALID,1003.9,VALID,0,VALID,68.1106,VALID,650.441,VALID,29.7453,VALID,212,VALID,2.17812,
2012-06-30, 09:42:04,VALID,1003.92,VALID,0,VALID,67.1799,VALID,748.741,VALID,29.6868,VALID,240,VALID,2.78672,
2012-06-30, 09:43:04,VALID,1003.9,VALID,0,VALID,69.3618,VALID,495.9,VALID,29.7063,VALID,257,VALID,1.31211,
2012-06-30, 09:44:04,VALID,1003.88,VALID,0,VALID,71.0859,VALID,773.194,VALID,29.7865,VALID,237,VALID,1.47266,
2012-06-30, 09:45:04,VALID,1003.86,VALID,0,VALID,70.7655,VALID,772.867,VALID,29.9013,VALID,242,VALID,1.37852,
2012-06-30, 09:46:04,VALID,1003.89,VALID,0,VALID,68.2174,VALID,785.257,VALID,30.1158,VALID,284,VALID,1.26719,
2012-06-30, 09:47:04,VALID,1003.86,VALID,0,VALID,67.6834,VALID,819.328,VALID,30.3109,VALID,330,VALID,1.54844,
2012-06-30, 09:48:04,VALID,1003.88,VALID,0,VALID,68.0038,VALID,332.801,VALID,30.2913,VALID,264,VALID,1.51953,
2012-06-30, 09:49:04,VALID,1003.88,VALID,0,VALID,67.1418,VALID,258.057,VALID,30.1915,VALID,235,VALID,2.60625,
2012-06-30, 09:50:04,VALID,1003.9,VALID,0,VALID,65.4482,VALID,355.053,VALID,29.938,VALID,228,VALID,2.14492,
2012-06-30, 09:51:04,VALID,1003.87,VALID,0,VALID,69.2473,VALID,772.949,VALID,29.8428,VALID,240,VALID,1.1457,
2012-06-30, 09:52:04,VALID,1003.86,VALID,0,VALID,67.4774,VALID,795.69,VALID,30.0011,VALID,215,VALID,2.08711,
2012-06-30, 09:53:04,VALID,1003.85,VALID,0,VALID,68.6065,VALID,512.365,VALID,30.0573,VALID,248,VALID,1.06172,
2012-06-30, 09:54:04,VALID,1003.85,VALID,0,VALID,68.0038,VALID,744.258,VALID,30.1525,VALID,227,VALID,1.26641,
2012-06-30, 09:55:04,VALID,1003.89,VALID,0,VALID,67.7445,VALID,767.488,VALID,30.2328,VALID,235,VALID,2.53398,
2012-06-30, 09:56:04,VALID,1003.85,VALID,0,VALID,69.3313,VALID,785.99,VALID,30.289,VALID,236,VALID,0.642969,
2012-06-30, 09:57:04,VALID,1003.89,VALID,0,VALID,66.89,VALID,207.929,VALID,30.5254,VALID,253,VALID,2.23828,
2012-06-30, 09:58:04,VALID,1003.87,VALID,0,VALID,67.302,VALID,823.322,VALID,30.4256,VALID,238,VALID,1.74844,
2012-06-30, 09:59:04,VALID,1003.81,VALID,0,VALID,68.4311,VALID,197.659,VALID,30.4669,VALID,269,VALID,0.662109,
2012-06-30, 10:00:04,VALID,1003.82,VALID,0,VALID,66.9434,VALID,301.746,VALID,30.5059,VALID,263,VALID,0.749219,
2012-06-30, 10:01:04,VALID,1003.8,VALID,0,VALID,68.4845,VALID,806.042,VALID,30.5254,VALID,254,VALID,0.957422,
2012-06-30, 10:02:04,VALID,1003.81,VALID,0,VALID,65.9746,VALID,769.526,VALID,30.7033,VALID,276,VALID,1.65156,
2012-06-30, 10:03:04,VALID,1003.75,VALID,0,VALID,65.1659,VALID,761.701,VALID,30.7618,VALID,279,VALID,2.05586,
2012-06-30, 10:04:04,VALID,1003.74,VALID,0,VALID,65.6313,VALID,773.52,VALID,30.7618,VALID,275,VALID,1.45898,
2012-06-30, 10:05:04,VALID,1003.7,VALID,0,VALID,66.9434,VALID,695.597,VALID,30.7813,VALID,285,VALID,1.31133,
2012-06-30, 10:06:04,VALID,1003.71,VALID,0,VALID,65.0286,VALID,817.127,VALID,30.8594,VALID,279,VALID,1.22305,
2012-06-30, 10:07:04,VALID,1003.64,VALID,0,VALID,65.0972,VALID,795.935,VALID,30.9179,VALID,231,VALID,1.84492,
2012-06-30, 10:08:04,VALID,1003.62,VALID,0,VALID,66.7756,VALID,818.023,VALID,30.8789,VALID,242,VALID,2.58789,
2012-06-30, 10:09:04,VALID,1003.62,VALID,0,VALID,67.7521,VALID,163.262,VALID,30.7228,VALID,266,VALID,1.89453,
2012-06-30, 10:10:04,VALID,1003.62,VALID,0,VALID,66.8977,VALID,139.462,VALID,30.5472,VALID,265,VALID,2.33164,
2012-06-30, 10:11:04,VALID,1003.62,VALID,0,VALID,68.0344,VALID,744.747,VALID,30.3132,VALID,292,VALID,1.09844,
2012-06-30, 10:12:04,VALID,1003.62,VALID,0,VALID,68.904,VALID,159.187,VALID,30.2569,VALID,267,VALID,1.07422,
2012-06-30, 10:13:04,VALID,1003.64,VALID,0,VALID,68.3166,VALID,373.311,VALID,30.1571,VALID,263,VALID,0.962109,
2012-06-30, 10:14:04,VALID,1003.62,VALID,0,VALID,68.2556,VALID,865.625,VALID,30.1594,VALID,240,VALID,1.9168,
2012-06-30, 10:15:04,VALID,1003.61,VALID,0,VALID,69.4381,VALID,683.534,VALID,30.1766,VALID,232,VALID,2.57578,
2012-06-30, 10:16:04,VALID,1003.63,VALID,0,VALID,68.248,VALID,856.496,VALID,30.1181,VALID,269,VALID,2.10625,
2012-06-30, 10:17:04,VALID,1003.59,VALID,0,VALID,67.7445,VALID,862.283,VALID,30.2523,VALID,230,VALID,2.15547,
2012-06-30, 10:18:04,VALID,1003.59,VALID,0,VALID,67.9962,VALID,848.834,VALID,30.2913,VALID,271,VALID,1.4293,
2012-06-30, 10:19:04,VALID,1003.56,VALID,0,VALID,68.309,VALID,826.337,VALID,30.3694,VALID,248,VALID,1.51172,
2012-06-30, 10:20:04,VALID,1003.59,VALID,0,VALID,68.0801,VALID,811.421,VALID,30.5059,VALID,263,VALID,1.3707,
2012-06-30, 10:21:04,VALID,1003.58,VALID,0,VALID,65.555,VALID,815.66,VALID,30.6424,VALID,244,VALID,2.5875,
2012-06-30, 10:22:04,VALID,1003.54,VALID,0,VALID,69.4762,VALID,812.318,VALID,30.4279,VALID,303,VALID,1.32969,
2012-06-30, 10:23:04,VALID,1003.58,VALID,0,VALID,72.0929,VALID,781.018,VALID,30.5644,VALID,204,VALID,0.455469,
2012-06-30, 10:24:04,VALID,1003.55,VALID,0,VALID,66.1348,VALID,836.852,VALID,30.8399,VALID,267,VALID,2.46953,
2012-06-30, 10:25:04,VALID,1003.5,VALID,0,VALID,67.0807,VALID,890.974,VALID,30.8375,VALID,263,VALID,1.89258,
2012-06-30, 10:26:04,VALID,1003.51,VALID,0,VALID,65.6694,VALID,132.126,VALID,30.6424,VALID,231,VALID,2.73828,
2012-06-30, 10:27:04,VALID,1003.5,VALID,0,VALID,68.4082,VALID,808.568,VALID,30.2328,VALID,226,VALID,2.35273,
2012-06-30, 10:28:04,VALID,1003.48,VALID,0,VALID,68.2098,VALID,796.505,VALID,30.1743,VALID,232,VALID,1.7418,
2012-06-30, 10:29:04,VALID,1003.48,VALID,0,VALID,66.9587,VALID,796.75,VALID,30.2328,VALID,257,VALID,1.23398,
2012-06-30, 10:30:04,VALID,1003.42,VALID,0,VALID,65.8372,VALID,821.039,VALID,30.3109,VALID,288,VALID,2.38008,
2012-06-30, 10:31:04,VALID,1003.44,VALID,0,VALID,68.7057,VALID,843.617,VALID,30.3694,VALID,295,VALID,1.36875,
2012-06-30, 10:32:04,VALID,1003.4,VALID,0,VALID,68.9803,VALID,928.142,VALID,30.5839,VALID,306,VALID,0.744141,
2012-06-30, 10:33:04,VALID,1003.42,VALID,0,VALID,67.4164,VALID,904.097,VALID,30.9959,VALID,276,VALID,0.901563,
2012-06-30, 10:34:04,VALID,1003.36,VALID,0,VALID,65.1506,VALID,909.721,VALID,31.2082,VALID,251,VALID,1.77148,
2012-06-30, 10:35:04,VALID,1003.36,VALID,0,VALID,68.2556,VALID,658.429,VALID,31.0545,VALID,203,VALID,1.98789,
2012-06-30, 10:36:04,VALID,1003.28,VALID,0,VALID,65.9593,VALID,885.92,VALID,31.0521,VALID,321,VALID,1.58828,
2012-06-30, 10:37:04,VALID,1003.28,VALID,0,VALID,65.204,VALID,862.446,VALID,31.1887,VALID,256,VALID,1.69023,
2012-06-30, 10:38:04,VALID,1003.3,VALID,0,VALID,66.6764,VALID,859.43,VALID,31.3057,VALID,322,VALID,0.887109,
2012-06-30, 10:39:04,VALID,1003.26,VALID,0,VALID,65.3795,VALID,401.92,VALID,31.5594,VALID,160,VALID,0.781641,
2012-06-30, 10:40:04,VALID,1003.25,VALID,0,VALID,62.9612,VALID,860.571,VALID,31.5594,VALID,243,VALID,1.61055,
2012-06-30, 10:41:04,VALID,1003.21,VALID,0,VALID,62.389,VALID,860.164,VALID,31.5984,VALID,289,VALID,1.74453,
2012-06-30, 10:42:04,VALID,1003.23,VALID,0,VALID,64.5174,VALID,861.386,VALID,31.5008,VALID,240,VALID,1.50312,
2012-06-30, 10:43:04,VALID,1003.26,VALID,0,VALID,64.1818,VALID,878.259,VALID,31.6593,VALID,256,VALID,1.8957,
2012-06-30, 10:44:04,VALID,1003.19,VALID,0,VALID,62.9154,VALID,862.12,VALID,31.8521,VALID,324,VALID,1.71992,
2012-06-30, 10:45:04,VALID,1003.21,VALID,0,VALID,61.0692,VALID,721.191,VALID,31.8325,VALID,308,VALID,1.7,
2012-06-30, 10:46:04,VALID,1003.19,VALID,0,VALID,63.5257,VALID,862.609,VALID,31.5008,VALID,235,VALID,3.09805,
2012-06-30, 10:47:04,VALID,1003.21,VALID,0,VALID,66.356,VALID,221.704,VALID,31.0545,VALID,247,VALID,1.26133,
2012-06-30, 10:48:04,VALID,1003.19,VALID,0,VALID,66.7527,VALID,920.643,VALID,30.7985,VALID,270,VALID,2.34961,
2012-06-30, 10:49:04,VALID,1003.15,VALID,0,VALID,67.157,VALID,929.12,VALID,30.8203,VALID,211,VALID,0.84375,
2012-06-30, 10:50:04,VALID,1003.04,VALID,0,VALID,65.4482,VALID,950.72,VALID,31.0154,VALID,276,VALID,1.55156,
2012-06-30, 10:51:04,VALID,1003.09,VALID,0,VALID,67.7445,VALID,331.089,VALID,31.1106,VALID,242,VALID,1.4793,
2012-06-30, 10:52:04,VALID,1003.1,VALID,0,VALID,67.7597,VALID,157.475,VALID,31.0326,VALID,276,VALID,0.969531,
2012-06-30, 10:53:04,VALID,1003.05,VALID,0,VALID,66.562,VALID,848.915,VALID,30.9936,VALID,257,VALID,1.58242,
2012-06-30, 10:54:04,VALID,1003.09,VALID,0,VALID,65.8525,VALID,554.098,VALID,31.152,VALID,267,VALID,1.30586,
2012-06-30, 10:55:04,VALID,1003.04,VALID,0,VALID,65.0057,VALID,846.959,VALID,31.2105,VALID,257,VALID,1.49922,
2012-06-30, 10:56:04,VALID,1002.98,VALID,0,VALID,63.7851,VALID,857.637,VALID,31.2105,VALID,255,VALID,1.98828,
2012-06-30, 10:57:04,VALID,1003,VALID,0,VALID,63.5333,VALID,877.525,VALID,31.2105,VALID,203,VALID,2.15586,
2012-06-30, 10:58:04,VALID,1003.02,VALID,0,VALID,63.4647,VALID,457.591,VALID,31.2886,VALID,270,VALID,1.76484,
2012-06-30, 10:59:04,VALID,1003.01,VALID,0,VALID,63.7774,VALID,666.824,VALID,31.2472,VALID,224,VALID,2.39219,
2012-06-30, 11:00:04,VALID,1002.99,VALID,0,VALID,65.6389,VALID,833.918,VALID,31.1887,VALID,233,VALID,1.8543,
2012-06-30, 11:01:04,VALID,1002.96,VALID,0,VALID,63.724,VALID,834.977,VALID,31.191,VALID,278,VALID,1.99688,
2012-06-30, 11:02:04,VALID,1002.98,VALID,0,VALID,63.2663,VALID,845.655,VALID,31.0154,VALID,244,VALID,2.1832,
2012-06-30, 11:03:04,VALID,1002.96,VALID,0,VALID,62.862,VALID,826.011,VALID,31.0131,VALID,275,VALID,2.00586,
2012-06-30, 11:04:04,VALID,1002.97,VALID,0,VALID,63.2968,VALID,830.005,VALID,30.9569,VALID,264,VALID,2.31133,
2012-06-30, 11:05:04,VALID,1002.95,VALID,0,VALID,63.9758,VALID,853.561,VALID,30.818,VALID,278,VALID,2.89609,
2012-06-30, 11:06:04,VALID,1002.92,VALID,0,VALID,65.8678,VALID,803.107,VALID,30.8008,VALID,272,VALID,1.37305,
2012-06-30, 11:07:05,VALID,1002.85,VALID,0,VALID,64.9981,VALID,910.618,VALID,30.8008,VALID,291,VALID,2.47734,
2012-06-30, 11:08:05,VALID,1002.84,VALID,0,VALID,66.2416,VALID,885.187,VALID,30.779,VALID,233,VALID,2.45547,